Weather History for KPIT - December, 2013

Change the Weather History Date:

Tuesday, December 31, 2013

  Actual Average Record
Temperature  
Mean Temperature 24 °F 29 °F  
Max Temperature 25 °F 36 °F 69 °F (1875)
Min Temperature 22 °F 22 °F -4 °F (1880)
Degree Days  
Heating Degree Days 41 36  
Month to date heating degree days 949 1013  
Since 1 July heating degree days 2117 2175  
Cooling Degree Days 0 0  
Month to date cooling degree days 0 0  
Year to date cooling degree days 831 736  
Moisture  
Dew Point 16 °F    
Average Humidity 72    
Maximum Humidity 84    
Minimum Humidity 59    
Precipitation  
Precipitation 0.04 in 0.09 in 1.15 in (1897)
Month to date precipitation 3.26 2.85  
Year to date precipitation 36.65 38.19  
Snow  
Snow 1.00 in 0.30 in 10.00 in (1897)
Month to date snowfall 15.0 8.3  
Since 1 July snowfall 24.4 10.7  
Snow Depth 1.00 in    
Sea Level Pressure  
Sea Level Pressure 30.21 in    
Wind  
Wind Speed 9 mph (WSW)    
Max Wind Speed 29 mph    
Max Gust Speed 36 mph    
Visibility 7 miles    
Events Snow    
T = Trace of Precipitation, MM = Missing Value Source: NWS Daily Summary

Daily Weather History Graph

Daily Weather History Graph

Search for Another Location

Airport or City:

Trip Planner

Search our weather history database for the weather conditions in past years. The results will help you decide how hot, cold, wet, or windy it might be!

Date:

Astronomy

Dec. 31, 2013 Rise Set
Actual Time 7:44 AM EST 5:04 PM EST
Civil Twilight 7:13 AM EST 5:34 PM EST
Nautical Twilight 6:39 AM EST 6:09 PM EST
Astronomical Twilight 6:05 AM EST 6:42 PM EST
Moon 6:35 AM EST (12/31) 4:38 PM EST (12/31)
Length of Visible Light 10h 21m
Length of Day
9h 20m
Waning Crescent, 1% of the Moon is Illuminated
Dec 31
Waning Crescent
Jan 1
New
Jan 7
First Quarter
Jan 15
Full
Jan 24
Last Quarter

Hourly Weather History & Observations

Time (EST) Temp. Windchill Dew Point Humidity Pressure Visibility Wind Dir Wind Speed Gust Speed Precip Events Conditions
12:51 AM 21.9 °F 17.2 °F 16.0 °F 78% 30.16 in 10.0 mi South 3.5 mph - 0.00 in   Overcast
12:58 AM 21.2 °F - 15.8 °F 80% 30.08 in 10.0 mi Calm Calm - N/A   Overcast
1:51 AM 23.0 °F 18.4 °F 17.1 °F 78% 30.15 in 10.0 mi South 3.5 mph - N/A   Overcast
2:01 AM 23.0 °F 18.4 °F 17.6 °F 80% 30.07 in 10.0 mi South 3.5 mph - N/A   Overcast
2:38 AM 23.0 °F 18.4 °F 17.6 °F 80% 30.07 in 10.0 mi South 3.5 mph - N/A   Overcast
2:51 AM 23.0 °F 18.4 °F 17.1 °F 78% 30.14 in 10.0 mi South 3.5 mph - N/A   Overcast
3:51 AM 24.1 °F 18.2 °F 19.0 °F 81% 30.13 in 5.0 mi WSW 4.6 mph - 0.00 in Snow Light Snow
4:51 AM 24.1 °F 16.0 °F 19.0 °F 81% 30.12 in 5.0 mi SW 6.9 mph - 0.00 in Snow Light Snow
5:51 AM 24.1 °F 15.2 °F 19.9 °F 84% 30.12 in 4.0 mi SW 8.1 mph - 0.00 in Snow Light Snow
6:51 AM 24.1 °F 14.4 °F 18.0 °F 77% 30.12 in 6.0 mi SW 9.2 mph 17.3 mph 0.00 in Snow Light Snow
7:51 AM 24.1 °F 11.5 °F 16.0 °F 71% 30.12 in 7.0 mi WSW 15.0 mph 23.0 mph 0.00 in Snow Light Snow
8:51 AM 25.0 °F 14.8 °F 15.1 °F 66% 30.14 in 9.0 mi WSW 10.4 mph - 0.00 in Snow Light Snow
9:16 AM 24.8 °F 14.0 °F 15.8 °F 69% 30.08 in 3.0 mi WSW 11.5 mph 21.9 mph 0.00 in Snow Light Snow
9:31 AM 24.8 °F 14.6 °F 17.6 °F 74% 30.09 in 2.0 mi WSW 10.4 mph 26.5 mph 0.00 in Snow Light Snow
9:51 AM 24.1 °F 13.1 °F 18.0 °F 77% 30.18 in 1.5 mi WSW 11.5 mph 18.4 mph 0.00 in Snow Light Snow
10:08 AM 24.8 °F 14.6 °F 19.4 °F 80% 30.11 in 4.0 mi West 10.4 mph 18.4 mph 0.00 in Snow Light Snow
10:40 AM 24.8 °F 13.4 °F 17.6 °F 74% 30.12 in 1.5 mi WSW 12.7 mph 19.6 mph 0.00 in Snow Light Snow
10:51 AM 24.1 °F 11.0 °F 18.0 °F 77% 30.21 in 1.5 mi West 16.1 mph 23.0 mph 0.00 in Snow Light Snow
11:16 AM 24.8 °F 13.4 °F 17.6 °F 74% 30.15 in 0.5 mi West 12.7 mph 27.6 mph 0.00 in Snow Snow
11:20 AM 24.8 °F 11.5 °F 17.6 °F 74% 30.15 in 0.5 mi West 17.3 mph 24.2 mph 0.00 in Snow Snow
11:42 AM 23.0 °F 8.3 °F 17.6 °F 80% 30.16 in 3.0 mi West 19.6 mph 34.5 mph 0.00 in Snow Light Snow
11:51 AM 23.0 °F 9.2 °F 17.1 °F 78% 30.24 in 3.0 mi West 17.3 mph 25.3 mph 0.00 in Snow Light Snow
12:51 PM 24.1 °F 9.0 °F 14.0 °F 65% 30.27 in 7.0 mi West 21.9 mph 26.5 mph 0.00 in Snow Light Snow
1:51 PM 23.0 °F 9.2 °F 12.9 °F 65% 30.31 in 7.0 mi West 17.3 mph 26.5 mph 0.00 in Snow Light Snow
2:29 PM 23.0 °F 7.2 °F 10.4 °F 59% 30.23 in 10.0 mi West 23.0 mph 28.8 mph 0.00 in Snow Light Snow
2:51 PM 24.1 °F 11.5 °F 12.9 °F 62% 30.31 in 10.0 mi West 15.0 mph 26.5 mph 0.00 in Snow Light Snow
3:51 PM 23.0 °F 11.1 °F 10.9 °F 60% 30.32 in 10.0 mi West 12.7 mph 20.7 mph 0.00 in   Mostly Cloudy
4:51 PM 23.0 °F 13.1 °F 10.9 °F 60% 30.33 in 10.0 mi West 9.2 mph 18.4 mph N/A   Mostly Cloudy
5:51 PM 23.0 °F 17.0 °F 12.0 °F 63% 30.32 in 10.0 mi WSW 4.6 mph - N/A   Overcast
6:51 PM 23.0 °F 15.8 °F 12.9 °F 65% 30.34 in 10.0 mi SW 5.8 mph - N/A   Overcast
7:51 PM 23.0 °F 17.0 °F 14.0 °F 68% 30.34 in 10.0 mi SW 4.6 mph - N/A   Mostly Cloudy
8:51 PM 23.0 °F 17.0 °F 15.1 °F 72% 30.35 in 10.0 mi SSW 4.6 mph - N/A   Overcast
9:51 PM 24.1 °F 18.2 °F 15.1 °F 69% 30.34 in 10.0 mi SSW 4.6 mph - N/A   Overcast
10:51 PM 24.1 °F - 16.0 °F 71% 30.34 in 10.0 mi Calm Calm - 0.00 in Snow Light Snow
11:51 PM 25.0 °F - 17.1 °F 72% 30.33 in 10.0 mi Calm Calm - 0.00 in   Overcast